Regional Weather Roundup
Issued by NWS Sterling, VA

Home | Current Version | Previous Version | Text Only | Print | Product List | Glossary On
Versions: 1 2 3 4 5 6 7 8 9 10 11 12 13 14 15 16 17 18 19 20 21 22 23 24 25 26 27 28 29 30 31 32 33 34 35 36 37 38 39 40 41 42 43 44 45 46 47 48 49 50
000
ASUS41 KLWX 301010
RWRLWX

REGIONAL WEATHER ROUNDUP
NATIONAL WEATHER SERVICE BALTIMORE MD/WASHINGTON DC
600 AM EDT TUE SEP 30 2014

Note: "FAIR" indicates few or no clouds below 12,000 feet
with no significant weather and/or obstructions to visibility.
 TC=TEMPERATURE CELSIUS

 * =Non NWS site. Station does not report precipitation (e.g. rain,
    snow, etc.), thunder, or fog.

DCZ001-MDZ009-015-VAZ040>042-051-053>054-301100-
WASHINGTON METRO

CITY           SKY/WX    TMP DP  RH WIND       PRES   REMARKS
WASHINGTON NAT CLOUDY    67  62  84 SW5       29.91S HAZE
DULLES         FOG       62  62 100 CALM      29.91S VSB 1/8
ANDREWS AFB    FOG       63  63 100 S5        29.91S VSB 3/4
QUANTICO       CLOUDY    64  62  93 W6        29.92R
COLLEGE PARK*  CLOUDY    66  64  94 CALM      29.91R
LEESBURG*      CLOUDY    63  63 100 CALM      29.92S
MANASSAS*      CLOUDY    64  63  94 CALM      29.91S
GAITHERSBURG*  CLOUDY    63  63 100 CALM      29.95R

$$

MDZ006>007-011-014-301100-
BALTIMORE METRO

CITY           SKY/WX    TMP DP  RH WIND       PRES   REMARKS
BWI AIRPORT    CLOUDY    65  63  93 SE3       29.91R FOG
MD SCIENCE CTR   N/A     66  64  93 MISG      29.91S
MARTIN STATE   CLOUDY    66  66 100 CALM      29.92S FOG
ANNAPOLIS        N/A     65  63  93 MISG      29.91R
FORT MEADE*    MOCLDY    63  61  94 SE3       29.93S

$$

MDZ012-015-019>023-301100-
MARYLAND EASTERN SHORE

CITY           SKY/WX    TMP DP  RH WIND       PRES   REMARKS
OCEAN CITY     CLOUDY   N/A N/A N/A CALM      29.91S
SALISBURY      CLOUDY    65  61  87 CALM      29.92R
BAY BRIDGE AP*   N/A     64  64 100 CALM      29.92R
CAMBRIDGE*     MOCLDY    61  59  94 CALM      29.92R
EASTON*        PTCLDY    63  63 100 CALM      29.96R FOG

$$

MDZ017>025-301100-
SOUTHERN MARYLAND

CITY           SKY/WX    TMP DP  RH WIND       PRES   REMARKS
PATUXENT RIVER CLOUDY    63  61  93 CALM      29.91S FOG
ST INIGOES     CLOUDY    65  60  84 W5        29.91S
LEONARDTOWN*   CLOUDY    63  61  94 CALM      29.93R

$$

MDZ003>005-301100-
NORTH CENTRAL MARYLAND

CITY           SKY/WX    TMP DP  RH WIND       PRES   REMARKS
FREDERICK*     CLOUDY    66  64  94 SE5       29.94R FOG
HAGERSTOWN APT CLEAR     59  56  89 CALM      29.90S FOG
WESTMINSTER*   FOG       63  61  94 CALM      29.92R VSB 3/4

$$

MDZ501>502-301100-
WESTERN MARYLAND

CITY           SKY/WX    TMP DP  RH WIND       PRES   REMARKS
OAKLAND*       CLEAR     55 N/A N/A SW6       29.97R
CUMBERLAND*    NOT AVBL

$$

VAZ025>031-301100-
SHENANDOAH VALLEY

CITY           SKY/WX    TMP DP  RH WIND       PRES   REMARKS
WINCHESTER*    CLEAR     54  52  94 CALM      29.91S FOG
STAUNTON*      CLOUDY    49  48  95 CALM      29.95S FOG

$$

WVZ021-048>050-054>055-301100-
EASTERN WEST VIRGINIA PANHANDLE

CITY           SKY/WX    TMP DP  RH WIND       PRES   REMARKS
MARTINSBURG    FOG       56  54  93 CALM      29.91R VSB 1/4
PETERSBURG*    FOG      N/A N/A N/A CALM      29.94S VSB 1/4

$$

VAZ036>039-050-301100-
CENTRAL FOOTHILLS

CITY           SKY/WX    TMP DP  RH WIND       PRES   REMARKS
CHARLOTTESVILL FOG       62  62 100 CALM      29.91R VSB 1/4
ORANGE*        CLOUDY    63  61  94 CALM      29.93R FOG

$$

VAZ055>057-301100-
NORTH AND CENTRAL PIEDMONT

CITY           SKY/WX    TMP DP  RH WIND       PRES   REMARKS
FREDERICKSBRG* CLOUDY    65  65 100 CALM      29.91R
STAFFORD*      CLOUDY    64  64 100 CALM      29.95S

$$

NCZ024-NYZ072-PAZ021-071-VAZ022-071-301100-
OTHER REGIONAL OBSERVATIONS

CITY           SKY/WX    TMP DP  RH WIND       PRES   REMARKS
NEW YORK CITY  CLOUDY    68  55  63 CALM      29.96R
PHILADELPHIA   CLOUDY    65  61  87 CALM      29.93R
PITTSBURGH     PTCLDY    54  52  93 CALM      29.89S
ROANOKE        FOG       57  57 100 W3        29.96R VSB 1/4
RICHMOND       CLOUDY    64  63  96 S5        29.91S FOG
RALEIGH        FOG       62  60  93 CALM      29.93S VSB 1/16

$$

ANZ530>537-301100-
MARINE OBSERVATIONS

STATION/POSITION TIME  TEMP    WIND        PRES
                       AIR SEA DIR/SP/G
                 (UTC) (F)     (DEG/KT/KT) (MB)
THOMAS PT LIGHT  1000   65 71  220/  2/  3 1014.0R
BALT KEY BRIDGE  1000   66     190/  2/  3 1012.7R
COVE POINT       1000   64     270/  4/  6 1012.9S
LEWISETTA        1000   64 71  230/  5/  6 1012.4F
SOLOMONS ISLAND  1000      72                N/A
PINEY POINT      1000          280/  6/  8   N/A

$$



USA.gov is the U.S. government's official web portal to all federal, state and local government web resources and services.